EW2348 Weather Reports


Display with metric or nautical units.
time (UTC)temp
F
wind
direction
speed
MPH
gust
MPH
rain 1hr
in
rain 24hr
in
rain mn
in
humidity
%
barometer
mb
20170923161538 87 278 0.0 4.0 0.00 0.00 0.00 54 1011.6
20170923161438 87 277 0.0 4.0 0.00 0.00 0.00 54 1011.6
20170923161138 85 276 2.0 4.0 0.00 0.00 0.00 52 1011.9
20170923160938 85 275 3.0 4.0 0.00 0.00 0.00 54 1011.8
20170923160739 86 271 1.0 3.0 0.00 0.00 0.00 54 1011.7
20170923160639 86 280 0.0 5.0 0.00 0.00 0.00 56 1011.7
20170923160438 86 312 0.0 6.0 0.00 0.00 0.00 56 1011.7
20170923160338 86 313 0.0 6.0 0.00 0.00 0.00 56 1011.8
20170923160139 86 318 0.0 6.0 0.00 0.00 0.00 56 1011.6
20170923155938 85 311 0.0 6.0 0.00 0.00 0.00 55 1011.7
20170923155739 84 302 1.0 6.0 0.00 0.00 0.00 55 1011.9
20170923155639 84 294 3.0 6.0 0.00 0.00 0.00 54 1012.0
20170923155438 85 270 1.0 5.0 0.00 0.00 0.00 55 1011.9
20170923155338 84 270 1.0 5.0 0.00 0.00 0.00 55 1012.0
20170923155239 84 264 2.0 5.0 0.00 0.00 0.00 56 1011.9
20170923155139 85 262 4.0 5.0 0.00 0.00 0.00 54 1011.8
20170923155038 84 268 2.0 5.0 0.00 0.00 0.00 55 1012.0
20170923154738 85 279 3.0 5.0 0.00 0.00 0.00 55 1011.8
20170923154640 86 280 3.0 5.0 0.00 0.00 0.00 56 1011.8
20170923154539 86 288 1.0 5.0 0.00 0.00 0.00 56 1011.8
20170923154438 86 296 0.0 5.0 0.00 0.00 0.00 56 1011.9
20170923154239 84 302 1.0 5.0 0.00 0.00 0.00 58 1012.2
20170923154038 84 301 2.0 5.0 0.00 0.00 0.00 57 1011.9
20170923153738 85 309 1.0 5.0 0.00 0.00 0.00 56 1011.8
20170923153439 84 308 3.0 5.0 0.00 0.00 0.00 56 1012.0
20170923153238 86 320 2.0 4.0 0.00 0.00 0.00 57 1012.0
20170923153039 86 311 0.0 4.0 0.00 0.00 0.00 57 1012.0
20170923152838 85 310 0.0 4.0 0.00 0.00 0.00 58 1012.1
20170923152439 84 316 1.0 4.0 0.00 0.00 0.00 58 1011.9
20170923152138 86 274 2.0 3.0 0.00 0.00 0.00 57 1011.8
20170923152038 86 263 0.0 2.0 0.00 0.00 0.00 60 1011.9
20170923151939 85 245 0.0 2.0 0.00 0.00 0.00 62 1012.0
20170923151839 84 248 1.0 2.0 0.00 0.00 0.00 57 1012.0
20170923151738 85 242 1.0 2.0 0.00 0.00 0.00 57 1012.1
20170923150938 83 301 1.0 4.0 0.00 0.00 0.00 61 1012.0
20170923150838 83 312 1.0 4.0 0.00 0.00 0.00 61 1012.1
20170923150738 84 314 1.0 4.0 0.00 0.00 0.00 63 1012.1
20170923150438 82 326 3.0 4.0 0.00 0.00 0.00 60 1012.0
20170923150338 83 321 2.0 4.0 0.00 0.00 0.00 62 1012.0
20170923150238 82 308 0.0 4.0 0.00 0.00 0.00 63 1012.0
20170923150139 82 308 1.0 4.0 0.00 0.00 0.00 61 1012.1
20170923150039 82 310 1.0 4.0 0.00 0.00 0.00 60 1012.1
20170923145938 83 310 3.0 4.0 0.00 0.00 0.00 57 1012.0
20170923145838 87 300 2.0 4.0 0.00 0.00 0.00 57 1012.1
20170923145738 86 308 0.0 2.0 0.00 0.00 0.00 58 1012.1
20170923145438 85 303 0.0 2.0 0.00 0.00 0.00 61 1012.3
20170923145338 84 293 0.0 2.0 0.00 0.00 0.00 61 1012.2
20170923145138 84 313 1.0 2.0 0.00 0.00 0.00 60 1012.0
20170923144839 85 313 1.0 2.0 0.00 0.00 0.00 57 1011.8
20170923144638 87 270 0.0 1.0 0.00 0.00 0.00 59 1012.1
20170923144538 87 270 0.0 1.0 0.00 0.00 0.00 59 1011.9
20170923144039 84 281 1.0 2.0 0.00 0.00 0.00 63 1012.0
20170923143738 83 280 1.0 2.0 0.00 0.00 0.00 65 1012.2
20170923143638 84 279 0.0 2.0 0.00 0.00 0.00 66 1012.0
20170923143538 83 280 0.0 2.0 0.00 0.00 0.00 64 1012.2
20170923143339 83 277 1.0 2.0 0.00 0.00 0.00 63 1012.1
20170923143239 83 271 0.0 2.0 0.00 0.00 0.00 64 1012.1
20170923143139 83 261 1.0 2.0 0.00 0.00 0.00 65 1012.0
20170923143038 83 243 0.0 2.0 0.00 0.00 0.00 65 1012.0
20170923142939 83 231 0.0 2.0 0.00 0.00 0.00 65 1012.0
20170923142738 83 254 1.0 2.0 0.00 0.00 0.00 65 1012.1
20170923142239 81 256 0.0 2.0 0.00 0.00 0.00 65 1011.8
20170923142038 82 304 1.0 2.0 0.00 0.00 0.00 65 1012.1
20170923141946 82 321 0.0 2.0 0.00 0.00 0.00 63 1012.2
20170923141438 84 1 0.0 2.0 0.00 0.00 0.00 65 1012.0
20170923141338 84 1 0.0 2.0 0.00 0.00 0.00 64 1012.0
20170923141239 84 1 0.0 2.0 0.00 0.00 0.00 65 1012.0
20170923141038 83 1 0.0 2.0 0.00 0.00 0.00 66 1012.1
20170923140738 82 1 1.0 2.0 0.00 0.00 0.00 69 1011.9
20170923140539 82 1 1.0 2.0 0.00 0.00 0.00 69 1012.0
20170923140438 82 357 1.0 2.0 0.00 0.00 0.00 69 1012.1
20170923140139 82 349 1.0 2.0 0.00 0.00 0.00 69 1012.2
20170923140039 82 322 1.0 2.0 0.00 0.00 0.00 69 1012.2
20170923135640 81 279 0.0 2.0 0.00 0.00 0.00 71 1012.3
20170923135539 82 279 0.0 3.0 0.00 0.00 0.00 73 1012.2
20170923135438 81 301 0.0 4.0 0.00 0.00 0.00 74 1012.1
20170923135238 79 322 0.0 4.0 0.00 0.00 0.00 76 1012.1
20170923135138 79 329 1.0 4.0 0.00 0.00 0.00 77 1012.0
20170923135039 79 333 0.0 4.0 0.00 0.00 0.00 78 1012.0
20170923134838 77 337 0.0 4.0 0.00 0.00 0.00 77 1012.0
20170923134738 77 340 1.0 4.0 0.00 0.00 0.00 78 1012.1
20170923134538 76 344 2.0 5.0 0.00 0.00 0.00 78 1012.2
20170923134439 77 344 3.0 5.0 0.00 0.00 0.00 79 1012.2
20170923134238 78 341 1.0 5.0 0.00 0.00 0.00 80 1012.1
20170923134138 77 338 1.0 5.0 0.00 0.00 0.00 80 1012.0
20170923133838 76 334 1.0 5.0 0.00 0.00 0.00 80 1012.0
20170923133738 75 335 1.0 5.0 0.00 0.00 0.00 81 1012.2
20170923133538 75 335 3.0 5.0 0.00 0.00 0.00 80 1011.9
20170923133238 76 306 2.0 4.0 0.00 0.00 0.00 82 1012.1
20170923133138 76 321 1.0 3.0 0.00 0.00 0.00 81 1012.1
20170923133038 76 316 1.0 3.0 0.00 0.00 0.00 82 1011.9
20170923132938 76 314 1.0 3.0 0.00 0.00 0.00 82 1012.1
20170923132839 77 314 1.0 3.0 0.00 0.00 0.00 83 1012.0
20170923132738 76 322 0.0 3.0 0.00 0.00 0.00 83 1012.0
20170923132538 76 335 0.0 3.0 0.00 0.00 0.00 84 1012.0
20170923132338 75 346 1.0 3.0 0.00 0.00 0.00 84 1012.0
20170923131938 74 353 1.0 3.0 0.00 0.00 0.00 85 1012.0
20170923131738 74 347 1.0 3.0 0.00 0.00 0.00 85 1012.0
20170923131539 74 336 2.0 3.0 0.00 0.00 0.00 86 1012.0
20170923131338 75 329 1.0 3.0 0.00 0.00 0.00 87 1012.0
20170923131239 74 334 1.0 3.0 0.00 0.00 0.00 87 1012.1
20170923131038 74 326 1.0 3.0 0.00 0.00 0.00 87 1011.9
20170923130938 74 321 1.0 3.0 0.00 0.00 0.00 88 1012.0
20170923130639 74 321 1.0 3.0 0.00 0.00 0.00 90 1012.0
20170923130538 74 312 1.0 3.0 0.00 0.00 0.00 90 1012.1
20170923130238 74 307 1.0 3.0 0.00 0.00 0.00 94 1012.0
20170923130138 74 304 1.0 3.0 0.00 0.00 0.00 95 1011.9
20170923130039 74 301 1.0 2.0 0.00 0.00 0.00 95 1011.8
20170923125638 73 315 1.0 2.0 0.00 0.00 0.00 97 1011.8
20170923125538 72 327 1.0 2.0 0.00 0.00 0.00 97 1011.9
20170923125439 72 327 1.0 2.0 0.00 0.00 0.00 97 1011.9
20170923125338 72 306 1.0 1.0 0.00 0.00 0.00 97 1011.7
20170923125138 71 270 0.0 1.0 0.00 0.00 0.00 98 1011.8
20170923125038 71 270 0.0 1.0 0.00 0.00 0.00 98 1011.8
20170923124738 70 270 0.0 1.0 0.00 0.00 0.00 98 1011.7
20170923124438 70 0 0.0 0.0 0.00 0.00 0.00 99 1011.6
20170923124139 69 0 0.0 0.0 0.00 0.00 0.00 99 1011.6
20170923124038 69 0 0.0 0.0 0.00 0.00 0.00 99 1011.6
20170923123938 69 0 0.0 0.0 0.00 0.00 0.00 99 1011.5
20170923123639 67 0 0.0 0.0 0.00 0.00 0.00 99 1011.5
20170923123538 67 0 0.0 0.0 0.00 0.00 0.00 99 1011.6
20170923123338 67 0 0.0 0.0 0.00 0.00 0.00 99 1011.7
20170923122838 67 0 0.0 0.0 0.00 0.00 0.00 99 1011.6
20170923122738 67 0 0.0 0.0 0.00 0.00 0.00 99 1011.3
20170923122638 67 0 0.0 0.0 0.00 0.00 0.00 99 1011.4
20170923122539 67 0 0.0 0.0 0.00 0.00 0.00 99 1011.6
20170923122438 67 0 0.0 0.0 0.00 0.00 0.00 99 1011.6
20170923121838 67 0 0.0 0.0 0.00 0.00 0.00 99 1011.3
20170923121439 67 0 0.0 0.0 0.00 0.00 0.00 99 1011.3
20170923121238 67 0 0.0 0.0 0.00 0.00 0.00 99 1011.3
20170923121138 67 0 0.0 0.0 0.00 0.00 0.00 99 1011.4
20170923120938 66 0 0.0 0.0 0.00 0.00 0.00 99 1011.3
20170923120839 66 0 0.0 0.0 0.00 0.00 0.00 99 1011.1
20170923120738 66 0 0.0 0.0 0.00 0.00 0.00 99 1011.1
20170923120638 67 0 0.0 0.0 0.00 0.00 0.00 99 1011.1
20170923120539 67 0 0.0 0.0 0.00 0.00 0.00 99 1011.2
20170923120438 67 0 0.0 0.0 0.00 0.00 0.00 99 1011.3
20170923120338 67 0 0.0 0.0 0.00 0.00 0.00 99 1011.1
20170923120238 67 0 0.0 0.0 0.00 0.00 0.00 99 1011.0
20170923115738 66 0 0.0 0.0 0.00 0.00 0.00 99 1011.2
20170923115538 66 0 0.0 0.0 0.00 0.00 0.00 99 1011.2
20170923115438 66 0 0.0 0.0 0.00 0.00 0.00 99 1011.0
20170923115338 66 0 0.0 0.0 0.00 0.00 0.00 99 1011.1
20170923115238 66 0 0.0 0.0 0.00 0.00 0.00 99 1011.0
20170923114839 66 0 0.0 0.0 0.00 0.00 0.00 99 1011.1
20170923114739 66 0 0.0 0.0 0.00 0.00 0.00 99 1011.1
20170923114638 66 0 0.0 0.0 0.00 0.00 0.00 99 1011.2
20170923114539 66 0 0.0 0.0 0.00 0.00 0.00 99 1011.1
20170923114439 66 0 0.0 0.0 0.00 0.00 0.00 99 1011.0
20170923114339 66 0 0.0 0.0 0.00 0.00 0.00 99 1011.1
20170923114240 66 0 0.0 0.0 0.00 0.00 0.00 99 1011.2
20170923114138 66 0 0.0 0.0 0.00 0.00 0.00 99 1011.0
20170923114038 66 0 0.0 0.0 0.00 0.00 0.00 99 1011.2
20170923113738 66 0 0.0 0.0 0.00 0.00 0.00 99 1010.9
20170923113638 66 0 0.0 0.0 0.00 0.00 0.00 99 1010.8
20170923113538 65 0 0.0 0.0 0.00 0.00 0.00 99 1011.0
20170923113339 65 0 0.0 0.0 0.00 0.00 0.00 99 1010.9
20170923113038 66 0 0.0 0.0 0.00 0.00 0.00 99 1010.8
20170923112938 66 0 0.0 0.0 0.00 0.00 0.00 99 1010.8
20170923112739 66 0 0.0 0.0 0.00 0.00 0.00 99 1010.8
20170923112638 66 0 0.0 0.0 0.00 0.00 0.00 99 1010.9
20170923112538 66 0 0.0 0.0 0.00 0.00 0.00 99 1010.9
20170923112438 66 0 0.0 0.0 0.00 0.00 0.00 99 1011.0
20170923112338 66 0 0.0 0.0 0.00 0.00 0.00 99 1010.7
20170923112138 66 0 0.0 0.0 0.00 0.00 0.00 99 1010.6
20170923112038 66 0 0.0 0.0 0.00 0.00 0.00 99 1010.8
20170923111739 67 0 0.0 0.0 0.00 0.00 0.00 99 1010.5
20170923111639 66 0 0.0 0.0 0.00 0.00 0.00 99 1010.6
20170923110838 66 0 0.0 0.0 0.00 0.00 0.00 99 1010.8
20170923110738 66 0 0.0 0.0 0.00 0.00 0.00 99 1010.8
20170923110638 66 0 0.0 0.0 0.00 0.00 0.00 99 1010.7
20170923110538 66 0 0.0 0.0 0.00 0.00 0.00 99 1010.7
20170923110338 65 0 0.0 0.0 0.00 0.00 0.00 99 1010.5
20170923110238 65 0 0.0 0.0 0.00 0.00 0.00 99 1010.6
20170923110138 65 0 0.0 0.0 0.00 0.00 0.00 99 1010.8
20170923110038 65 0 0.0 0.0 0.00 0.00 0.00 99 1010.7
20170923105838 65 0 0.0 0.0 0.00 0.00 0.00 99 1010.8
20170923105638 66 0 0.0 0.0 0.00 0.00 0.00 99 1010.6
20170923105538 66 0 0.0 0.0 0.00 0.00 0.00 99 1010.6
20170923105439 65 0 0.0 0.0 0.00 0.00 0.00 99 1010.8
20170923105238 65 0 0.0 0.0 0.00 0.00 0.00 99 1010.6
20170923105138 65 0 0.0 0.0 0.00 0.00 0.00 99 1010.8
20170923105038 65 0 0.0 0.0 0.00 0.00 0.00 99 1010.8
20170923104938 65 0 0.0 0.0 0.00 0.00 0.00 99 1010.5
20170923104738 65 0 0.0 0.0 0.00 0.00 0.00 99 1010.7
20170923104638 65 0 0.0 0.0 0.00 0.00 0.00 99 1010.5
20170923104538 65 0 0.0 0.0 0.00 0.00 0.00 99 1010.5
20170923104438 65 0 0.0 0.0 0.00 0.00 0.00 99 1010.6
20170923104339 65 0 0.0 0.0 0.00 0.00 0.00 99 1010.5
20170923104038 65 0 0.0 0.0 0.00 0.00 0.00 99 1010.4
20170923103839 65 0 0.0 0.0 0.00 0.00 0.00 99 1010.5
20170923103738 65 0 0.0 0.0 0.00 0.00 0.00 99 1010.5
20170923103638 65 0 0.0 0.0 0.00 0.00 0.00 99 1010.5
20170923103538 65 0 0.0 0.0 0.00 0.00 0.00 99 1010.4
20170923103339 65 0 0.0 0.0 0.00 0.00 0.00 99 1010.4
20170923103238 65 0 0.0 0.0 0.00 0.00 0.00 99 1010.4
20170923102938 66 0 0.0 0.0 0.00 0.00 0.00 99 1010.4
20170923102838 66 0 0.0 0.0 0.00 0.00 0.00 99 1010.4
20170923102638 66 0 0.0 0.0 0.00 0.00 0.00 99 1010.4
20170923102538 65 0 0.0 0.0 0.00 0.00 0.00 99 1010.4
20170923102438 65 0 0.0 0.0 0.00 0.00 0.00 99 1010.4
20170923102338 65 0 0.0 0.0 0.00 0.00 0.00 99 1010.2
20170923102238 65 0 0.0 0.0 0.00 0.00 0.00 99 1010.3
20170923102138 65 0 0.0 0.0 0.00 0.00 0.00 99 1010.2
20170923102038 65 0 0.0 0.0 0.00 0.00 0.00 99 1010.3
20170923101838 64 0 0.0 0.0 0.00 0.00 0.00 97 1010.4
20170923101739 64 0 0.0 0.0 0.00 0.00 0.00 97 1010.0
20170923101538 64 0 0.0 0.0 0.00 0.00 0.00 99 1010.2
20170923101238 64 0 0.0 0.0 0.00 0.00 0.00 99 1010.2
20170923101138 65 0 0.0 0.0 0.00 0.00 0.00 99 1010.1
20170923101038 65 0 0.0 0.0 0.00 0.00 0.00 99 1010.0
20170923100938 65 0 0.0 0.0 0.00 0.00 0.00 99 1010.0
20170923100639 65 0 0.0 0.0 0.00 0.00 0.00 99 1010.1
20170923100538 65 0 0.0 0.0 0.00 0.00 0.00 99 1010.1
20170923100438 65 0 0.0 0.0 0.00 0.00 0.00 99 1010.0
20170923100338 65 0 0.0 0.0 0.00 0.00 0.00 99 1010.0
20170923100238 65 0 0.0 0.0 0.00 0.00 0.00 99 1010.1
20170923095938 65 0 0.0 0.0 0.00 0.00 0.00 99 1010.0
20170923095738 65 0 0.0 0.0 0.00 0.00 0.00 99 1010.1
20170923095638 65 0 0.0 0.0 0.00 0.00 0.00 99 1010.2
20170923095538 65 0 0.0 0.0 0.00 0.00 0.00 99 1010.1
20170923095438 64 0 0.0 0.0 0.00 0.00 0.00 97 1010.0
20170923095338 64 0 0.0 0.0 0.00 0.00 0.00 97 1010.2
20170923095038 64 0 0.0 0.0 0.00 0.00 0.00 97 1010.1
20170923094838 64 0 0.0 0.0 0.00 0.00 0.00 97 1010.1
20170923094538 64 0 0.0 0.0 0.00 0.00 0.00 97 1009.9
20170923094338 64 0 0.0 0.0 0.00 0.00 0.00 99 1010.2
20170923094238 64 0 0.0 0.0 0.00 0.00 0.00 99 1010.0
20170923093738 65 0 0.0 0.0 0.00 0.00 0.00 99 1010.0
20170923093638 65 0 0.0 0.0 0.00 0.00 0.00 99 1010.0
20170923093538 65 0 0.0 0.0 0.00 0.00 0.00 99 1010.2
20170923093238 65 0 0.0 0.0 0.00 0.00 0.00 99 1009.9
20170923093038 65 0 0.0 0.0 0.00 0.00 0.00 99 1009.9
20170923092938 65 0 0.0 0.0 0.00 0.00 0.00 99 1010.1
20170923092738 65 0 0.0 0.0 0.00 0.00 0.00 99 1010.0
20170923092538 66 0 0.0 0.0 0.00 0.00 0.00 99 1009.9
20170923092438 66 0 0.0 0.0 0.00 0.00 0.00 99 1010.0
20170923092238 66 0 0.0 0.0 0.00 0.00 0.00 99 1010.1
20170923091840 66 0 0.0 0.0 0.00 0.00 0.00 99 1010.1
20170923091747 66 0 0.0 0.0 0.00 0.00 0.00 99 1010.0
20170923091338 66 0 0.0 0.0 0.00 0.00 0.00 99 1009.6
20170923091139 66 0 0.0 0.0 0.00 0.00 0.00 99 1009.7
20170923091038 66 0 0.0 0.0 0.00 0.00 0.00 99 1009.9
20170923090538 66 0 0.0 0.0 0.00 0.00 0.00 99 1009.6
20170923090138 66 0 0.0 0.0 0.00 0.00 0.00 99 1009.7
20170923090038 66 0 0.0 0.0 0.00 0.00 0.00 99 1009.7
20170923085838 66 0 0.0 0.0 0.00 0.00 0.00 99 1009.8
20170923085738 66 0 0.0 0.0 0.00 0.00 0.00 99 1009.6
20170923085538 66 0 0.0 0.0 0.00 0.00 0.00 99 1009.8
20170923085439 66 0 0.0 0.0 0.00 0.00 0.00 99 1009.7
20170923085338 66 0 0.0 0.0 0.00 0.00 0.00 99 1009.8
20170923084838 67 0 0.0 0.0 0.00 0.00 0.00 99 1009.7
20170923084438 67 0 0.0 0.0 0.00 0.00 0.00 99 1009.8
20170923084337 67 0 0.0 0.0 0.00 0.00 0.00 99 1009.8
20170923084138 67 0 0.0 0.0 0.00 0.00 0.00 99 1009.7
20170923084038 67 0 0.0 0.0 0.00 0.00 0.00 99 1009.9
20170923083938 67 0 0.0 0.0 0.00 0.00 0.00 99 1009.9
20170923083639 67 0 0.0 0.0 0.00 0.00 0.00 99 1009.8
20170923083538 67 0 0.0 0.0 0.00 0.00 0.00 99 1009.6
20170923083438 67 0 0.0 0.0 0.00 0.00 0.00 99 1009.6
20170923083338 67 0 0.0 0.0 0.00 0.00 0.00 99 1009.7
20170923083138 67 0 0.0 0.0 0.00 0.00 0.00 99 1009.8
20170923083038 67 0 0.0 0.0 0.00 0.00 0.00 99 1009.7
20170923082838 67 0 0.0 0.0 0.00 0.00 0.00 99 1009.6
20170923082638 67 0 0.0 0.0 0.00 0.00 0.00 99 1009.7
20170923082538 67 0 0.0 0.0 0.00 0.00 0.00 99 1009.7
20170923082238 67 0 0.0 0.0 0.00 0.00 0.00 99 1009.6
20170923082038 67 0 0.0 0.0 0.00 0.00 0.00 99 1009.6
20170923081938 67 0 0.0 0.0 0.00 0.00 0.00 99 1009.6
20170923081738 67 0 0.0 0.0 0.00 0.00 0.00 99 1009.6
20170923081637 67 0 0.0 0.0 0.00 0.00 0.00 99 1009.6
20170923081538 67 0 0.0 0.0 0.00 0.00 0.00 99 1009.6
20170923081438 67 0 0.0 0.0 0.00 0.00 0.00 99 1009.7
20170923081338 67 0 0.0 0.0 0.00 0.00 0.00 99 1009.6
20170923080938 67 0 0.0 0.0 0.00 0.00 0.00 99 1009.5
20170923080638 67 0 0.0 0.0 0.00 0.00 0.00 99 1009.5
20170923080538 67 0 0.0 0.0 0.00 0.00 0.00 99 1009.8
20170923080438 67 0 0.0 0.0 0.00 0.00 0.00 99 1009.5
20170923080338 67 0 0.0 0.0 0.00 0.00 0.00 99 1009.8
20170923080137 67 0 0.0 0.0 0.00 0.00 0.00 99 1009.7
20170923075938 67 0 0.0 0.0 0.00 0.00 0.00 99 1009.6
20170923075638 67 352 0.0 1.0 0.00 0.00 0.00 99 1009.7
20170923075538 68 337 0.0 1.0 0.00 0.00 0.00 99 1009.6
20170923075438 68 337 0.0 1.0 0.00 0.00 0.00 99 1009.3
20170923075342 68 337 0.0 1.0 0.00 0.00 0.00 99 1009.7
20170923074838 68 337 0.0 1.0 0.00 0.00 0.00 99 1009.7
20170923074738 68 337 0.0 1.0 0.00 0.00 0.00 99 1009.7
20170923074638 68 314 0.0 1.0 0.00 0.00 0.00 99 1009.5
20170923074538 68 0 0.0 0.0 0.00 0.00 0.00 99 1009.4
20170923074338 68 0 0.0 0.0 0.00 0.00 0.00 99 1009.4
20170923074238 68 0 0.0 0.0 0.00 0.00 0.00 99 1009.4
20170923074138 68 0 0.0 0.0 0.00 0.00 0.00 99 1009.5
20170923074038 68 0 0.0 0.0 0.00 0.00 0.00 99 1009.6
20170923073938 68 0 0.0 0.0 0.00 0.00 0.00 99 1009.4
20170923073838 68 0 0.0 0.0 0.00 0.00 0.00 99 1009.4
20170923073638 68 0 0.0 0.0 0.00 0.00 0.00 99 1009.4
20170923073538 68 0 0.0 0.0 0.00 0.00 0.00 99 1009.8
20170923073438 68 0 0.0 0.0 0.00 0.00 0.00 99 1009.7
20170923073338 68 0 0.0 0.0 0.00 0.00 0.00 99 1009.5
20170923073238 68 0 0.0 0.0 0.00 0.00 0.00 99 1009.5
20170923072938 68 0 0.0 0.0 0.00 0.00 0.00 99 1009.7
20170923072737 68 0 0.0 0.0 0.00 0.00 0.00 99 1009.8
20170923072438 69 0 0.0 0.0 0.00 0.00 0.00 99 1009.5
20170923072238 68 0 0.0 0.0 0.00 0.00 0.00 99 1009.7
20170923072138 68 0 0.0 0.0 0.00 0.00 0.00 99 1009.5
20170923071738 68 0 0.0 0.0 0.00 0.00 0.00 99 1009.4
20170923071638 68 0 0.0 0.0 0.00 0.00 0.00 99 1009.6
20170923071538 68 0 0.0 0.0 0.00 0.00 0.00 99 1009.5
20170923071338 68 0 0.0 0.0 0.00 0.00 0.00 99 1009.6
20170923071138 69 0 0.0 0.0 0.00 0.00 0.00 99 1009.4
20170923070937 68 0 0.0 0.0 0.00 0.00 0.00 99 1009.7
20170923070638 67 0 0.0 0.0 0.00 0.00 0.00 99 1009.8
20170923070538 67 0 0.0 0.0 0.00 0.00 0.00 99 1009.6
20170923070438 68 0 0.0 0.0 0.00 0.00 0.00 99 1009.7
20170923070038 68 0 0.0 0.0 0.00 0.00 0.00 99 1009.6
20170923065938 68 0 0.0 0.0 0.00 0.00 0.00 99 1009.7
20170923065837 68 0 0.0 0.0 0.00 0.00 0.00 99 1009.7
20170923065738 68 0 0.0 0.0 0.00 0.00 0.00 99 1009.8
20170923065138 69 0 0.0 0.0 0.00 0.00 0.00 99 1009.9
20170923065038 68 0 0.0 0.0 0.00 0.00 0.00 99 1009.8
20170923064838 68 0 0.0 0.0 0.00 0.00 0.00 99 1009.7
20170923064738 68 0 0.0 0.0 0.00 0.00 0.00 99 1009.8
20170923064238 69 0 0.0 0.0 0.00 0.00 0.00 99 1009.8
20170923064137 69 0 0.0 0.0 0.00 0.00 0.00 99 1009.9
20170923064037 68 0 0.0 0.0 0.00 0.00 0.00 99 1009.9
20170923063938 68 0 0.0 0.0 0.00 0.00 0.00 99 1009.8
20170923063738 68 0 0.0 0.0 0.00 0.00 0.00 99 1009.8
20170923063538 68 0 0.0 0.0 0.00 0.00 0.00 99 1009.7
20170923063038 68 0 0.0 0.0 0.00 0.00 0.00 99 1009.7
20170923062938 68 0 0.0 0.0 0.00 0.00 0.00 99 1009.8
20170923062838 68 0 0.0 0.0 0.00 0.00 0.00 99 1009.9
20170923062738 68 0 0.0 0.0 0.00 0.00 0.00 99 1009.9
20170923062438 68 0 0.0 0.0 0.00 0.00 0.00 99 1009.8
20170923062338 68 0 0.0 0.0 0.00 0.00 0.00 99 1009.8
20170923062237 68 0 0.0 0.0 0.00 0.00 0.00 99 1009.8
20170923061738 68 0 0.0 0.0 0.00 0.00 0.00 99 1009.8
20170923061537 68 0 0.0 0.0 0.00 0.00 0.00 99 1009.9
20170923061438 68 0 0.0 0.0 0.00 0.00 0.00 99 1009.9
20170923061338 68 0 0.0 0.0 0.00 0.00 0.00 99 1009.7
20170923061138 68 0 0.0 0.0 0.00 0.00 0.00 99 1010.0
20170923060937 68 0 0.0 0.0 0.00 0.00 0.00 99 1009.9
20170923060837 68 0 0.0 0.0 0.00 0.00 0.00 99 1009.9
20170923060538 68 0 0.0 0.0 0.00 0.00 0.00 99 1010.0
20170923060138 68 0 0.0 0.0 0.00 0.00 0.00 99 1009.9
20170923055938 68 0 0.0 0.0 0.00 0.00 0.00 99 1009.9
20170923055838 68 0 0.0 0.0 0.00 0.00 0.00 99 1009.6
20170923055738 68 0 0.0 0.0 0.00 0.00 0.00 99 1010.0
20170923055638 68 0 0.0 0.0 0.00 0.00 0.00 99 1010.0
20170923055538 68 0 0.0 0.0 0.00 0.00 0.00 99 1009.9
20170923055438 68 0 0.0 0.0 0.00 0.00 0.00 99 1009.8
20170923054938 68 0 0.0 0.0 0.00 0.00 0.00 99 1009.9
20170923054637 69 0 0.0 0.0 0.00 0.00 0.00 99 1009.9
20170923054438 69 0 0.0 0.0 0.00 0.00 0.00 99 1009.8
20170923054038 68 0 0.0 0.0 0.00 0.00 0.00 99 1009.8
20170923053838 68 0 0.0 0.0 0.00 0.00 0.00 99 1009.7
20170923053738 68 0 0.0 0.0 0.00 0.00 0.00 99 1009.8
20170923053638 68 0 0.0 0.0 0.00 0.00 0.00 99 1009.8
20170923053538 68 0 0.0 0.0 0.00 0.00 0.00 99 1009.9
20170923053437 68 0 0.0 0.0 0.00 0.00 0.00 99 1009.7
20170923053338 68 0 0.0 0.0 0.00 0.00 0.00 99 1009.6
20170923053238 68 0 0.0 0.0 0.00 0.00 0.00 99 1009.8
20170923053138 68 0 0.0 0.0 0.00 0.00 0.00 99 1009.7
20170923052938 68 0 0.0 0.0 0.00 0.00 0.00 99 1009.7
20170923052838 68 0 0.0 0.0 0.00 0.00 0.00 99 1009.9
20170923052738 68 0 0.0 0.0 0.00 0.00 0.00 99 1009.8
20170923052538 68 0 0.0 0.0 0.00 0.00 0.00 98 1009.7
20170923052438 68 0 0.0 0.0 0.00 0.00 0.00 98 1009.7
20170923052038 68 0 0.0 0.0 0.00 0.00 0.00 98 1009.8
20170923051838 68 0 0.0 0.0 0.00 0.00 0.00 98 1009.7
20170923051738 68 0 0.0 0.0 0.00 0.00 0.00 98 1010.0
20170923051638 69 0 0.0 0.0 0.00 0.00 0.00 97 1009.7
20170923051538 68 0 0.0 0.0 0.00 0.00 0.00 97 1009.9
20170923051338 69 0 0.0 0.0 0.00 0.00 0.00 96 1009.9
20170923051238 69 0 0.0 0.0 0.00 0.00 0.00 96 1009.7
20170923051137 69 0 0.0 0.0 0.00 0.00 0.00 96 1009.8
20170923051038 69 0 0.0 0.0 0.00 0.00 0.00 96 1009.9
20170923050938 69 0 0.0 0.0 0.00 0.00 0.00 96 1009.7
20170923050738 69 0 0.0 0.0 0.00 0.00 0.00 96 1009.9
20170923050338 69 0 0.0 0.0 0.00 0.00 0.00 95 1010.0
20170923050238 69 0 0.0 0.0 0.00 0.00 0.00 95 1009.9
20170923050138 69 0 0.0 0.0 0.00 0.00 0.00 95 1009.9
20170923050038 69 0 0.0 0.0 0.00 0.00 0.00 95 1009.9
20170923045938 69 0 0.0 0.0 0.00 0.00 0.00 95 1009.9
20170923045838 69 0 0.0 0.0 0.00 0.00 0.00 95 1010.0
20170923045638 70 0 0.0 0.0 0.00 0.00 0.00 95 1009.8
20170923045537 70 0 0.0 0.0 0.00 0.00 0.00 94 1010.0
20170923045437 70 0 0.0 0.0 0.00 0.00 0.00 94 1009.7
20170923045338 70 0 0.0 0.0 0.00 0.00 0.00 94 1010.0
20170923045038 71 0 0.0 0.0 0.00 0.00 0.00 93 1010.0
20170923044937 70 0 0.0 0.0 0.00 0.00 0.00 93 1009.8
20170923044438 71 90 0.0 1.0 0.00 0.00 0.00 93 1009.8
20170923044338 71 90 0.0 1.0 0.00 0.00 0.00 93 1010.0
20170923044238 71 90 0.0 1.0 0.00 0.00 0.00 94 1009.7
20170923044138 71 90 0.0 1.0 0.00 0.00 0.00 94 1009.9
20170923043937 71 90 0.0 1.0 0.00 0.00 0.00 94 1009.9
20170923043838 70 90 0.0 1.0 0.00 0.00 0.00 95 1010.0
20170923043538 70 0 0.0 0.0 0.00 0.00 0.00 94 1009.8
20170923043338 70 0 0.0 0.0 0.00 0.00 0.00 94 1009.8
20170923043237 70 0 0.0 0.0 0.00 0.00 0.00 94 1009.9
20170923043038 70 0 0.0 0.0 0.00 0.00 0.00 93 1009.8
20170923042838 70 0 0.0 0.0 0.00 0.00 0.00 93 1009.7
20170923042738 70 0 0.0 0.0 0.00 0.00 0.00 93 1009.8
20170923042538 70 0 0.0 0.0 0.00 0.00 0.00 93 1009.8
20170923042438 70 0 0.0 0.0 0.00 0.00 0.00 93 1010.0
20170923042338 71 0 0.0 0.0 0.00 0.00 0.00 93 1009.8
20170923042238 70 0 0.0 0.0 0.00 0.00 0.00 93 1009.6
20170923042137 70 0 0.0 0.0 0.00 0.00 0.00 93 1009.7
20170923042038 70 0 0.0 0.0 0.00 0.00 0.00 94 1009.6
20170923041938 69 0 0.0 0.0 0.00 0.00 0.00 93 1009.9
20170923041838 69 0 0.0 0.0 0.00 0.00 0.00 93 1009.7
20170923041637 69 0 0.0 0.0 0.00 0.00 0.00 93 1009.7
20170923041538 70 0 0.0 0.0 0.00 0.00 0.00 93 1009.8
20170923041438 70 0 0.0 0.0 0.00 0.00 0.00 93 1009.7
20170923041338 70 0 0.0 0.0 0.00 0.00 0.00 92 1009.8
20170923041137 70 0 0.0 0.0 0.00 0.00 0.00 91 1009.7
20170923040938 70 0 0.0 0.0 0.00 0.00 0.00 91 1009.9
20170923040838 71 0 0.0 0.0 0.00 0.00 0.00 91 1009.8
20170923040738 72 0 0.0 0.0 0.00 0.00 0.00 88 1009.7
20170923040637 72 0 0.0 0.0 0.00 0.00 0.00 88 1010.0
20170923040438 72 0 0.0 0.0 0.00 0.00 0.00 88 1009.9
20170923040338 72 0 0.0 0.0 0.00 0.00 0.00 88 1009.8
20170923040038 72 0 0.0 0.0 0.00 0.00 0.00 88 1010.0
20170923035938 71 0 0.0 0.0 0.00 0.00 0.00 88 1009.9
20170923035439 72 0 0.0 0.0 0.00 0.00 0.00 86 1009.6
20170923034938 72 0 0.0 0.0 0.00 0.00 0.00 86 1009.7
20170923034638 72 0 0.0 0.0 0.00 0.00 0.00 86 1009.9
20170923034437 72 1 0.0 1.0 0.00 0.00 0.00 86 1010.0
20170923034338 72 1 0.0 1.0 0.00 0.00 0.00 86 1009.8
20170923034238 72 1 0.0 1.0 0.00 0.00 0.00 85 1009.8
20170923034138 72 1 0.0 1.0 0.00 0.00 0.00 85 1009.9
20170923033638 72 1 0.0 1.0 0.00 0.00 0.00 85 1009.9
20170923033538 72 1 0.0 1.0 0.00 0.00 0.00 85 1010.0
20170923033438 73 1 0.0 1.0 0.00 0.00 0.00 85 1009.9
20170923033338 72 0 0.0 0.0 0.00 0.00 0.00 84 1009.9
20170923033138 72 0 0.0 0.0 0.00 0.00 0.00 83 1010.0
20170923033038 72 0 0.0 0.0 0.00 0.00 0.00 83 1009.7
20170923032838 72 0 0.0 0.0 0.00 0.00 0.00 83 1009.8
20170923032737 72 0 0.0 0.0 0.00 0.00 0.00 83 1009.7
20170923032538 72 0 0.0 0.0 0.00 0.00 0.00 82 1009.7
20170923032438 72 0 0.0 0.0 0.00 0.00 0.00 82 1009.8
20170923032338 73 0 0.0 0.0 0.00 0.00 0.00 82 1009.9
20170923032237 72 0 0.0 0.0 0.00 0.00 0.00 82 1009.6
20170923032138 72 0 0.0 0.0 0.00 0.00 0.00 81 1009.7
20170923031838 72 90 0.0 1.0 0.00 0.00 0.00 80 1009.7
20170923031438 73 51 0.0 2.0 0.00 0.00 0.00 78 1009.7
20170923031338 73 39 0.0 2.0 0.00 0.00 0.00 77 1009.8
20170923031037 74 352 0.0 2.0 0.00 0.00 0.00 77 1009.6
20170923030738 75 317 0.0 2.0 0.00 0.00 0.00 76 1009.8
20170923030638 75 300 1.0 2.0 0.00 0.00 0.00 76 1009.8
20170923030538 75 283 0.0 1.0 0.00 0.00 0.00 76 1009.9
20170923030438 75 283 1.0 1.0 0.00 0.00 0.00 75 1009.8
20170923030337 75 293 0.0 1.0 0.00 0.00 0.00 74 1009.8
20170923030238 75 318 0.0 1.0 0.00 0.00 0.00 74 1009.7
20170923030038 75 355 0.0 1.0 0.00 0.00 0.00 73 1009.9
20170923025837 76 44 0.0 1.0 0.00 0.00 0.00 73 1009.7
20170923025638 76 22 0.0 1.0 0.00 0.00 0.00 73 1009.8
20170923025538 76 355 0.0 2.0 0.00 0.00 0.00 73 1009.8
20170923025438 76 328 0.0 2.0 0.00 0.00 0.00 73 1009.5
20170923025338 76 309 0.0 2.0 0.00 0.00 0.00 73 1009.7
20170923025238 75 307 0.0 2.0 0.00 0.00 0.00 73 1009.6
20170923025038 76 307 0.0 2.0 0.00 0.00 0.00 73 1009.6
20170923024738 76 296 0.0 2.0 0.00 0.00 0.00 73 1009.6
20170923024638 76 301 0.0 2.0 0.00 0.00 0.00 74 1009.6
20170923024537 75 304 1.0 2.0 0.00 0.00 0.00 74 1009.7
20170923024438 76 307 0.0 2.0 0.00 0.00 0.00 74 1009.7
20170923024037 75 305 1.0 2.0 0.00 0.00 0.00 74 1009.7
20170923023937 75 314 1.0 2.0 0.00 0.00 0.00 74 1009.9
20170923023837 75 0 0.0 0.0 0.00 0.00 0.00 75 1009.8
20170923023738 75 0 0.0 0.0 0.00 0.00 0.00 74 1009.6
20170923023438 76 0 0.0 0.0 0.00 0.00 0.00 74 1009.6
20170923023338 75 0 0.0 0.0 0.00 0.00 0.00 74 1009.8
20170923023238 76 0 0.0 0.0 0.00 0.00 0.00 74 1009.9
20170923022938 76 0 0.0 0.0 0.00 0.00 0.00 73 1009.6
20170923022837 76 0 0.0 0.0 0.00 0.00 0.00 73 1009.7
20170923022738 76 270 0.0 1.0 0.00 0.00 0.00 72 1009.8
20170923022237 76 131 0.0 1.0 0.00 0.00 0.00 71 1009.6
20170923022038 76 131 0.0 1.0 0.00 0.00 0.00 72 1009.6
20170923021838 76 286 0.0 1.0 0.00 0.00 0.00 71 1009.7
20170923021737 76 284 0.0 1.0 0.00 0.00 0.00 72 1009.5
20170923021638 76 282 0.0 1.0 0.00 0.00 0.00 72 1009.8
20170923021538 76 282 0.0 1.0 0.00 0.00 0.00 72 1009.6
20170923021438 77 277 0.0 1.0 0.00 0.00 0.00 72 1009.8
20170923021338 76 277 0.0 1.0 0.00 0.00 0.00 72 1009.7
20170923021038 76 277 0.0 1.0 0.00 0.00 0.00 73 1009.7
20170923020938 76 280 0.0 1.0 0.00 0.00 0.00 73 1009.7
20170923020738 76 265 0.0 1.0 0.00 0.00 0.00 73 1009.6
20170923020638 76 287 0.0 1.0 0.00 0.00 0.00 76 1009.6
20170923020538 76 297 0.0 1.0 0.00 0.00 0.00 76 1009.7
20170923020438 76 292 0.0 1.0 0.00 0.00 0.00 76 1009.7
20170923020239 76 289 0.0 1.0 0.00 0.00 0.00 76 1009.6
20170923020138 76 289 0.0 1.0 0.00 0.00 0.00 76 1009.7
20170923015737 75 309 0.0 1.0 0.00 0.00 0.00 76 1009.6
20170923015538 75 270 0.0 1.0 0.00 0.00 0.00 77 1009.6
20170923015238 75 0 0.0 0.0 0.00 0.00 0.00 77 1009.6
20170923015137 75 0 0.0 0.0 0.00 0.00 0.00 77 1009.8
20170923015038 75 0 0.0 0.0 0.00 0.00 0.00 76 1009.7
20170923014738 75 0 0.0 0.0 0.00 0.00 0.00 75 1009.7
20170923014637 75 0 0.0 0.0 0.00 0.00 0.00 75 1009.7
20170923014538 75 0 0.0 0.0 0.00 0.00 0.00 74 1009.8
20170923014137 76 90 0.0 1.0 0.00 0.00 0.00 71 1009.8
20170923013937 76 90 0.0 1.0 0.00 0.00 0.00 70 1009.8
20170923013838 77 90 0.0 1.0 0.00 0.00 0.00 70 1009.7
20170923013638 77 90 0.0 1.0 0.00 0.00 0.00 69 1009.8
20170923013537 77 90 0.0 1.0 0.00 0.00 0.00 69 1009.8
20170923013437 77 90 0.0 1.0 0.00 0.00 0.00 68 1009.8
20170923013238 78 90 0.0 1.0 0.00 0.00 0.00 68 1009.6
20170923013138 77 90 0.0 1.0 0.00 0.00 0.00 68 1009.6
20170923012837 78 90 0.0 1.0 0.00 0.00 0.00 68 1009.6
20170923012337 78 90 0.0 1.0 0.00 0.00 0.00 67 1009.6
20170923012038 78 90 0.0 1.0 0.00 0.00 0.00 66 1009.7
20170923011738 78 90 0.0 1.0 0.00 0.00 0.00 66 1009.6
20170923011637 78 90 0.0 1.0 0.00 0.00 0.00 66 1009.5
20170923011538 78 90 0.0 1.0 0.00 0.00 0.00 66 1010.0
20170923011438 78 90 1.0 1.0 0.00 0.00 0.00 66 1009.7
20170923011338 78 90 0.0 1.0 0.00 0.00 0.00 66 1009.8
20170923011037 78 56 0.0 2.0 0.00 0.00 0.00 66 1009.5
20170923010938 78 43 0.0 2.0 0.00 0.00 0.00 66 1009.7
20170923010838 78 43 0.0 2.0 0.00 0.00 0.00 66 1009.7
20170923010738 78 16 0.0 2.0 0.00 0.00 0.00 66 1009.6
20170923010637 78 12 0.0 2.0 0.00 0.00 0.00 66 1009.7
20170923010338 79 38 0.0 2.0 0.00 0.00 0.00 65 1009.7
20170923010138 78 59 1.0 2.0 0.00 0.00 0.00 65 1009.9
20170923005938 79 65 0.0 2.0 0.00 0.00 0.00 65 1009.6
20170923005837 79 71 0.0 2.0 0.00 0.00 0.00 65 1009.7
20170923005738 79 80 0.0 2.0 0.00 0.00 0.00 65 1009.6
20170923005337 79 78 1.0 2.0 0.00 0.00 0.00 63 1009.4
20170923005237 79 80 1.0 2.0 0.00 0.00 0.00 63 1009.6
20170923004938 79 83 1.0 2.0 0.00 0.00 0.00 63 1009.5
20170923004737 79 63 0.0 2.0 0.00 0.00 0.00 64 1009.4
20170923004637 79 74 0.0 2.0 0.00 0.00 0.00 63 1009.4
20170923004438 79 63 0.0 2.0 0.00 0.00 0.00 63 1009.4
20170923004238 79 29 1.0 2.0 0.00 0.00 0.00 63 1009.6
20170923003838 79 295 1.0 2.0 0.00 0.00 0.00 63 1009.5
20170923003537 79 293 0.0 2.0 0.00 0.00 0.00 63 1009.4
20170923003338 79 278 1.0 2.0 0.00 0.00 0.00 63 1009.5
20170923003238 79 280 0.0 2.0 0.00 0.00 0.00 63 1009.5
20170923003137 79 287 0.0 1.0 0.00 0.00 0.00 64 1009.5
20170923002938 79 296 0.0 1.0 0.00 0.00 0.00 64 1009.5
20170923002838 79 300 1.0 1.0 0.00 0.00 0.00 64 1009.4
20170923002738 79 270 0.0 1.0 0.00 0.00 0.00 64 1009.5
20170923002338 79 122 0.0 1.0 0.00 0.00 0.00 63 1009.2
20170923002238 79 122 0.0 1.0 0.00 0.00 0.00 63 1009.4
20170923002037 80 100 0.0 2.0 0.00 0.00 0.00 63 1009.4
20170923001937 80 97 0.0 2.0 0.00 0.00 0.00 63 1009.5
20170923001838 80 98 0.0 2.0 0.00 0.00 0.00 62 1009.5
20170923001738 80 90 0.0 2.0 0.00 0.00 0.00 63 1009.5
20170923001437 80 90 0.0 2.0 0.00 0.00 0.00 62 1009.4
20170923001338 80 270 0.0 2.0 0.00 0.00 0.00 62 1009.5
20170923001138 80 270 0.0 2.0 0.00 0.00 0.00 62 1009.2
20170923000937 80 270 0.0 1.0 0.00 0.00 0.00 62 1009.3
20170923000837 80 268 0.0 1.0 0.00 0.00 0.00 62 1009.3
20170923000538 80 238 0.0 1.0 0.00 0.00 0.00 62 1009.3
20170922235837 80 69 0.0 1.0 0.00 0.00 0.00 62 1009.3
20170922235538 80 23 0.0 1.0 0.00 0.00 0.00 62 1009.2
20170922235438 80 15 0.0 1.0 0.00 0.00 0.00 62 1009.2
20170922235337 80 16 1.0 1.0 0.00 0.00 0.00 62 1009.2
20170922235237 80 12 0.0 1.0 0.00 0.00 0.00 62 1009.1
20170922235138 80 357 1.0 1.0 0.00 0.00 0.00 62 1009.2
20170922235038 80 358 1.0 1.0 0.00 0.00 0.00 62 1009.3
20170922234338 80 1 0.0 1.0 0.00 0.00 0.00 62 1009.0
20170922234237 80 0 0.0 0.0 0.00 0.00 0.00 62 1009.0
20170922234137 80 0 0.0 0.0 0.00 0.00 0.00 62 1009.0
20170922233938 80 0 0.0 0.0 0.00 0.00 0.00 61 1009.1
20170922233738 80 0 0.0 0.0 0.00 0.00 0.00 62 1009.1
20170922233537 80 0 0.0 0.0 0.00 0.00 0.00 60 1009.1
20170922233437 80 0 0.0 0.0 0.00 0.00 0.00 60 1009.2
20170922233337 80 0 0.0 0.0 0.00 0.00 0.00 60 1009.1
20170922233238 80 0 0.0 0.0 0.00 0.00 0.00 60 1009.3
20170922233138 81 0 0.0 0.0 0.00 0.00 0.00 58 1009.2
20170922233037 80 0 0.0 0.0 0.00 0.00 0.00 59 1009.1
20170922232937 81 0 0.0 0.0 0.00 0.00 0.00 58 1009.2
20170922232837 81 0 0.0 0.0 0.00 0.00 0.00 58 1009.2
20170922232738 81 0 0.0 0.0 0.00 0.00 0.00 58 1009.2
20170922232638 81 0 0.0 0.0 0.00 0.00 0.00 57 1009.1
20170922232538 81 0 0.0 0.0 0.00 0.00 0.00 56 1009.0
20170922232337 81 0 0.0 0.0 0.00 0.00 0.00 56 1009.2
20170922232238 81 0 0.0 0.0 0.00 0.00 0.00 55 1009.1
20170922232138 82 0 0.0 0.0 0.00 0.00 0.00 55 1009.0
20170922232038 82 0 0.0 0.0 0.00 0.00 0.00 54 1008.9
20170922231837 82 0 0.0 0.0 0.00 0.00 0.00 53 1009.2
20170922231538 83 75 0.0 1.0 0.00 0.00 0.00 53 1008.9
20170922231437 84 71 0.0 1.0 0.00 0.00 0.00 53 1009.1
20170922231337 83 77 0.0 1.0 0.00 0.00 0.00 51 1009.1
20170922231138 84 68 0.0 1.0 0.00 0.00 0.00 50 1009.0
20170922231038 84 61 0.0 1.0 0.00 0.00 0.00 50 1009.1
20170922230637 84 76 0.0 1.0 0.00 0.00 0.00 49 1009.0
20170922230538 85 82 0.0 1.0 0.00 0.00 0.00 50 1009.0
20170922230038 85 90 1.0 2.0 0.00 0.00 0.00 49 1009.1
20170922225938 85 90 0.0 2.0 0.00 0.00 0.00 48 1009.0
20170922225837 85 90 0.0 2.0 0.00 0.00 0.00 49 1009.0
20170922225538 85 90 1.0 2.0 0.00 0.00 0.00 48 1009.0
20170922225237 85 90 1.0 2.0 0.00 0.00 0.00 47 1009.0
20170922225138 85 90 1.0 2.0 0.00 0.00 0.00 47 1008.9
20170922225038 86 90 0.0 1.0 0.00 0.00 0.00 46 1008.9
20170922224938 87 90 0.0 1.0 0.00 0.00 0.00 45 1008.9
20170922224637 89 0 0.0 0.0 0.00 0.00 0.00 46 1008.8
20170922224538 90 90 0.0 1.0 0.00 0.00 0.00 45 1009.0
20170922224338 89 81 0.0 1.0 0.00 0.00 0.00 48 1009.1
20170922224237 89 82 0.0 1.0 0.00 0.00 0.00 47 1008.9
20170922224137 89 80 0.0 1.0 0.00 0.00 0.00 48 1009.0
20170922224038 88 78 0.0 1.0 0.00 0.00 0.00 49 1009.1
20170922223938 88 72 0.0 1.0 0.00 0.00 0.00 49 1009.1
20170922223838 87 70 0.0 1.0 0.00 0.00 0.00 46 1009.1
20170922223637 88 73 0.0 1.0 0.00 0.00 0.00 46 1009.1
20170922223538 87 66 0.0 1.0 0.00 0.00 0.00 46 1009.1
20170922223438 88 46 0.0 1.0 0.00 0.00 0.00 47 1009.0
20170922223337 88 46 0.0 1.0 0.00 0.00 0.00 46 1009.0
20170922223237 87 31 0.0 1.0 0.00 0.00 0.00 46 1008.8
20170922223138 88 72 0.0 1.0 0.00 0.00 0.00 47 1009.1
20170922223038 88 71 0.0 1.0 0.00 0.00 0.00 45 1009.0
20170922222737 87 30 0.0 2.0 0.00 0.00 0.00 46 1009.1
20170922222637 88 62 0.0 2.0 0.00 0.00 0.00 46 1009.0
20170922222538 87 71 0.0 2.0 0.00 0.00 0.00 46 1009.0
20170922222338 88 53 0.0 2.0 0.00 0.00 0.00 44 1009.1
20170922222137 88 60 0.0 2.0 0.00 0.00 0.00 45 1009.0
20170922222038 87 78 1.0 2.0 0.00 0.00 0.00 46 1009.0
20170922221938 87 85 1.0 2.0 0.00 0.00 0.00 46 1009.1
20170922221537 88 52 0.0 2.0 0.00 0.00 0.00 44 1009.1
20170922221438 89 90 1.0 2.0 0.00 0.00 0.00 44 1008.9
20170922221338 89 90 0.0 1.0 0.00 0.00 0.00 43 1009.0
20170922221237 89 90 0.0 1.0 0.00 0.00 0.00 43 1009.2
20170922221037 90 39 1.0 1.0 0.00 0.00 0.00 42 1009.0
20170922220738 89 270 0.0 1.0 0.00 0.00 0.00 43 1009.1
20170922220537 89 308 0.0 2.0 0.00 0.00 0.00 43 1009.0
20170922220437 89 306 0.0 2.0 0.00 0.00 0.00 43 1009.0
20170922220338 89 294 0.0 2.0 0.00 0.00 0.00 43 1009.1
20170922220238 89 300 0.0 2.0 0.00 0.00 0.00 43 1009.0
20170922220137 89 314 0.0 2.0 0.00 0.00 0.00 43 1009.0
20170922220037 89 349 0.0 3.0 0.00 0.00 0.00 43 1009.0
20170922215937 89 324 0.0 3.0 0.00 0.00 0.00 44 1008.9
20170922215838 89 322 0.0 3.0 0.00 0.00 0.00 45 1009.0
20170922215638 89 338 0.0 3.0 0.00 0.00 0.00 43 1009.0
20170922215538 89 339 0.0 3.0 0.00 0.00 0.00 44 1008.9
20170922215437 88 351 0.0 3.0 0.00 0.00 0.00 44 1008.9
20170922215338 88 355 1.0 3.0 0.00 0.00 0.00 44 1009.2
20170922215238 88 3 1.0 3.0 0.00 0.00 0.00 44 1008.9
20170922215137 88 355 2.0 3.0 0.00 0.00 0.00 45 1009.1
20170922214937 89 348 1.0 3.0 0.00 0.00 0.00 44 1009.0
20170922214837 89 359 0.0 5.0 0.00 0.00 0.00 44 1008.8
20170922214137 89 328 0.0 5.0 0.00 0.00 0.00 45 1008.7
20170922214038 89 325 0.0 5.0 0.00 0.00 0.00 44 1008.8
20170922213737 89 296 0.0 2.0 0.00 0.00 0.00 44 1009.0
20170922213538 88 293 1.0 2.0 0.00 0.00 0.00 43 1009.1
20170922213438 89 289 1.0 2.0 0.00 0.00 0.00 43 1008.8
20170922213338 89 295 1.0 2.0 0.00 0.00 0.00 43 1009.0
20170922213238 89 302 1.0 2.0 0.00 0.00 0.00 43 1009.1
20170922213138 90 297 1.0 3.0 0.00 0.00 0.00 41 1008.8
20170922213038 91 300 1.0 3.0 0.00 0.00 0.00 41 1009.0
20170922212837 90 306 1.0 3.0 0.00 0.00 0.00 43 1009.0
20170922212538 89 308 1.0 3.0 0.00 0.00 0.00 43 1009.1
20170922212137 89 293 1.0 3.0 0.00 0.00 0.00 42 1009.1
20170922212037 90 289 1.0 2.0 0.00 0.00 0.00 41 1009.1
20170922211938 91 235 1.0 2.0 0.00 0.00 0.00 42 1009.0
20170922211738 92 70 1.0 3.0 0.00 0.00 0.00 43 1009.0
20170922211637 91 65 0.0 3.0 0.00 0.00 0.00 45 1009.0
20170922211437 91 38 0.0 3.0 0.00 0.00 0.00 46 1009.0
20170922211337 91 30 0.0 3.0 0.00 0.00 0.00 43 1009.3
20170922211238 90 24 0.0 3.0 0.00 0.00 0.00 41 1009.2
20170922211138 88 12 1.0 5.0 0.00 0.00 0.00 42 1008.9
20170922211037 88 347 1.0 5.0 0.00 0.00 0.00 42 1009.0
20170922210937 88 346 1.0 5.0 0.00 0.00 0.00 43 1009.2
20170922210638 88 302 1.0 5.0 0.00 0.00 0.00 43 1009.2
20170922210538 90 305 2.0 5.0 0.00 0.00 0.00 44 1009.0
20170922210437 89 312 1.0 5.0 0.00 0.00 0.00 45 1009.1
20170922210237 88 309 1.0 5.0 0.00 0.00 0.00 43 1009.1
20170922210138 89 315 3.0 5.0 0.00 0.00 0.00 44 1009.0
20170922210038 89 329 1.0 3.0 0.00 0.00 0.00 44 1009.0
20170922205737 89 345 1.0 3.0 0.00 0.00 0.00 43 1009.0
20170922205637 89 356 1.0 3.0 0.00 0.00 0.00 43 1009.0
20170922205538 90 347 1.0 3.0 0.00 0.00 0.00 44 1009.0
20170922205337 90 16 2.0 3.0 0.00 0.00 0.00 44 1009.1
20170922205237 90 56 1.0 4.0 0.00 0.00 0.00 43 1008.9
20170922205137 90 72 1.0 4.0 0.00 0.00 0.00 44 1009.2
20170922205037 91 83 1.0 4.0 0.00 0.00 0.00 45 1009.0
20170922204938 90 74 0.0 4.0 0.00 0.00 0.00 43 1009.1
20170922204438 90 50 0.0 4.0 0.00 0.00 0.00 43 1009.1
20170922204237 90 49 2.0 5.0 0.00 0.00 0.00 43 1009.2
20170922204038 89 33 2.0 5.0 0.00 0.00 0.00 42 1009.3
20170922203937 90 42 1.0 5.0 0.00 0.00 0.00 43 1009.3
20170922203638 89 32 1.0 5.0 0.00 0.00 0.00 45 1009.3
20170922203138 89 353 3.0 5.0 0.00 0.00 0.00 44 1009.3
20170922203038 89 351 3.0 5.0 0.00 0.00 0.00 46 1009.3
20170922202937 88 338 0.0 4.0 0.00 0.00 0.00 44 1009.2
20170922202738 89 322 3.0 4.0 0.00 0.00 0.00 43 1009.2
20170922202437 89 324 1.0 3.0 0.00 0.00 0.00 42 1009.3
20170922202237 90 323 2.0 3.0 0.00 0.00 0.00 41 1009.4
20170922202138 90 314 1.0 3.0 0.00 0.00 0.00 42 1009.3
20170922202038 90 309 1.0 3.0 0.00 0.00 0.00 42 1009.1
20170922201938 91 335 1.0 3.0 0.00 0.00 0.00 43 1009.2
20170922201538 90 310 1.0 4.0 0.00 0.00 0.00 43 1009.5
20170922201337 91 313 0.0 4.0 0.00 0.00 0.00 42 1009.0
20170922201237 91 314 0.0 4.0 0.00 0.00 0.00 42 1009.4
20170922201137 90 313 1.0 4.0 0.00 0.00 0.00 43 1009.4
20170922200938 89 311 0.0 4.0 0.00 0.00 0.00 45 1009.4
20170922200838 89 312 1.0 4.0 0.00 0.00 0.00 44 1009.4
20170922200437 89 310 3.0 4.0 0.00 0.00 0.00 43 1009.5
20170922200238 89 313 3.0 4.0 0.00 0.00 0.00 43 1009.5
20170922200137 89 318 3.0 4.0 0.00 0.00 0.00 43 1009.4
20170922195837 89 313 1.0 3.0 0.00 0.00 0.00 42 1009.7
20170922195638 89 2 1.0 3.0 0.00 0.00 0.00 42 1009.5
20170922195538 90 359 1.0 3.0 0.00 0.00 0.00 41 1009.6
20170922195437 90 355 0.0 4.0 0.00 0.00 0.00 42 1009.7
20170922195238 89 328 2.0 4.0 0.00 0.00 0.00 43 1009.6
20170922195037 90 322 0.0 4.0 0.00 0.00 0.00 44 1009.5
20170922194837 89 331 1.0 4.0 0.00 0.00 0.00 43 1009.5
20170922194737 89 326 2.0 4.0 0.00 0.00 0.00 43 1009.6
20170922194638 89 317 1.0 4.0 0.00 0.00 0.00 44 1009.7
20170922194538 88 318 0.0 4.0 0.00 0.00 0.00 43 1009.6
20170922194437 89 326 2.0 4.0 0.00 0.00 0.00 44 1009.4
20170922194237 90 3 1.0 5.0 0.00 0.00 0.00 42 1009.6
20170922193938 90 34 1.0 5.0 0.00 0.00 0.00 43 1009.7
20170922193837 89 55 1.0 5.0 0.00 0.00 0.00 45 1009.6
20170922193737 89 55 1.0 5.0 0.00 0.00 0.00 46 1009.8
20170922193637 89 58 2.0 5.0 0.00 0.00 0.00 46 1009.8
20170922193438 89 73 3.0 5.0 0.00 0.00 0.00 42 1009.8
20170922193037 89 62 3.0 5.0 0.00 0.00 0.00 44 1009.7
20170922192938 89 66 3.0 5.0 0.00 0.00 0.00 45 1010.0
20170922192437 90 28 3.0 6.0 0.00 0.00 0.00 43 1009.8
20170922192137 89 334 1.0 7.0 0.00 0.00 0.00 44 1010.0
20170922192037 89 332 1.0 7.0 0.00 0.00 0.00 44 1009.8
20170922191937 89 323 1.0 7.0 0.00 0.00 0.00 44 1009.9
20170922191838 89 323 2.0 7.0 0.00 0.00 0.00 44 1009.6
20170922191437 89 329 3.0 7.0 0.00 0.00 0.00 44 1009.9
20170922191138 90 40 4.0 7.0 0.00 0.00 0.00 42 1010.0
20170922190837 90 49 1.0 5.0 0.00 0.00 0.00 44 1010.1
20170922190538 89 34 3.0 5.0 0.00 0.00 0.00 46 1010.1
20170922190337 88 356 2.0 5.0 0.00 0.00 0.00 43 1010.3
20170922190138 89 7 1.0 3.0 0.00 0.00 0.00 43 1010.0
20170922185737 90 34 0.0 4.0 0.00 0.00 0.00 46 1010.1
20170922185438 90 42 1.0 4.0 0.00 0.00 0.00 44 1010.2
20170922185338 89 50 0.0 4.0 0.00 0.00 0.00 43 1010.2
20170922185037 90 67 3.0 5.0 0.00 0.00 0.00 43 1010.3
20170922184838 90 72 1.0 5.0 0.00 0.00 0.00 46 1010.3
20170922184637 89 62 2.0 5.0 0.00 0.00 0.00 44 1010.3
20170922184537 89 55 1.0 5.0 0.00 0.00 0.00 46 1010.2
20170922184437 88 67 2.0 5.0 0.00 0.00 0.00 46 1010.2
20170922184238 88 31 2.0 5.0 0.00 0.00 0.00 45 1010.3
20170922184137 88 6 3.0 5.0 0.00 0.00 0.00 45 1010.4
20170922183937 88 352 2.0 5.0 0.00 0.00 0.00 43 1010.4
20170922183637 90 337 1.0 5.0 0.00 0.00 0.00 45 1010.4
20170922183337 89 338 2.0 5.0 0.00 0.00 0.00 47 1010.4
20170922183237 89 344 1.0 6.0 0.00 0.00 0.00 46 1010.4
20170922183138 89 17 2.0 6.0 0.00 0.00 0.00 49 1010.5
20170922182937 88 99 1.0 6.0 0.00 0.00 0.00 46 1010.4
20170922182837 90 91 3.0 6.0 0.00 0.00 0.00 46 1010.2
20170922182537 89 98 2.0 6.0 0.00 0.00 0.00 51 1010.3
20170922182238 87 75 4.0 6.0 0.00 0.00 0.00 46 1010.2
20170922182137 87 15 5.0 6.0 0.00 0.00 0.00 46 1010.3
20170922181838 89 302 3.0 5.0 0.00 0.00 0.00 46 1010.4
20170922181738 89 293 1.0 5.0 0.00 0.00 0.00 46 1010.4
20170922181437 89 284 0.0 5.0 0.00 0.00 0.00 46 1010.5
20170922181238 88 278 3.0 5.0 0.00 0.00 0.00 46 1010.4
20170922180937 89 268 1.0 5.0 0.00 0.00 0.00 46 1010.4
20170922180837 89 270 2.0 5.0 0.00 0.00 0.00 47 1010.4
20170922180337 90 247 1.0 5.0 0.00 0.00 0.00 51 1010.5
20170922180237 90 143 1.0 5.0 0.00 0.00 0.00 51 1010.8
20170922180038 90 107 1.0 5.0 0.00 0.00 0.00 51 1010.7
20170922175937 90 101 1.0 5.0 0.00 0.00 0.00 48 1010.6
20170922175837 89 98 1.0 5.0 0.00 0.00 0.00 47 1010.4
20170922175438 88 89 2.0 6.0 0.00 0.00 0.00 52 1010.8
20170922175338 88 88 3.0 6.0 0.00 0.00 0.00 50 1010.8
20170922175238 88 87 3.0 6.0 0.00 0.00 0.00 48 1010.7
20170922175137 87 79 1.0 6.0 0.00 0.00 0.00 52 1010.9
20170922175037 87 77 1.0 6.0 0.00 0.00 0.00 51 1010.8
20170922174637 89 341 3.0 5.0 0.00 0.00 0.00 50 1010.8
20170922174537 89 333 3.0 5.0 0.00 0.00 0.00 52 1010.8
20170922174437 88 319 3.0 5.0 0.00 0.00 0.00 52 1010.9
20170922174338 89 299 2.0 5.0 0.00 0.00 0.00 53 1010.8
20170922174238 88 297 2.0 5.0 0.00 0.00 0.00 51 1011.0
20170922174137 87 279 2.0 5.0 0.00 0.00 0.00 49 1010.7
20170922173938 87 314 3.0 5.0 0.00 0.00 0.00 49 1011.0
20170922173737 89 41 3.0 5.0 0.00 0.00 0.00 48 1010.8
20170922173637 88 102 1.0 4.0 0.00 0.00 0.00 47 1010.7
20170922173537 90 259 2.0 4.0 0.00 0.00 0.00 44 1011.0
20170922173338 90 343 1.0 4.0 0.00 0.00 0.00 47 1010.9
20170922173237 90 339 1.0 4.0 0.00 0.00 0.00 48 1011.1
20170922173137 89 327 0.0 4.0 0.00 0.00 0.00 48 1010.8
20170922173037 89 328 0.0 4.0 0.00 0.00 0.00 47 1011.0
20170922172837 89 323 2.0 4.0 0.00 0.00 0.00 47 1010.8
20170922172537 88 342 2.0 5.0 0.00 0.00 0.00 48 1011.0
20170922172437 88 342 2.0 5.0 0.00 0.00 0.00 49 1011.1
20170922171737 89 310 3.0 5.0 0.00 0.00 0.00 49 1011.2
20170922171638 89 298 1.0 3.0 0.00 0.00 0.00 52 1011.3
20170922171538 88 296 2.0 3.0 0.00 0.00 0.00 53 1011.2
20170922171437 89 290 1.0 3.0 0.00 0.00 0.00 51 1011.3
20170922171238 89 288 2.0 3.0 0.00 0.00 0.00 53 1011.2
20170922171138 89 305 1.0 5.0 0.00 0.00 0.00 50 1011.0
20170922170837 88 297 0.0 5.0 0.00 0.00 0.00 56 1011.3
20170922170638 87 296 1.0 5.0 0.00 0.00 0.00 63 1011.0
20170922170238 87 322 1.0 5.0 0.00 0.00 0.00 49 1011.2
20170922170038 90 5 2.0 4.0 0.00 0.00 0.00 49 1011.2
20170922165837 89 47 0.0 3.0 0.00 0.00 0.00 51 1011.1
20170922165638 89 98 0.0 3.0 0.00 0.00 0.00 53 1011.3
20170922165537 89 108 1.0 3.0 0.00 0.00 0.00 53 1011.3
20170922165137 88 104 0.0 3.0 0.00 0.00 0.00 54 1011.1
20170922165038 87 107 1.0 3.0 0.00 0.00 0.00 54 1011.3
20170922164938 87 97 0.0 3.0 0.00 0.00 0.00 55 1011.1
20170922164837 87 90 1.0 3.0 0.00 0.00 0.00 55 1011.4
20170922164537 87 63 1.0 3.0 0.00 0.00 0.00 56 1011.2
20170922164437 87 44 1.0 3.0 0.00 0.00 0.00 55 1011.5
20170922164338 87 35 1.0 3.0 0.00 0.00 0.00 54 1011.2
20170922164237 86 38 1.0 3.0 0.00 0.00 0.00 54 1011.3
20170922164137 87 42 1.0 3.0 0.00 0.00 0.00 55 1011.3
20170922164037 87 37 1.0 3.0 0.00 0.00 0.00 56 1011.3
20170922163937 86 13 1.0 3.0 0.00 0.00 0.00 55 1011.1
20170922163738 86 308 1.0 3.0 0.00 0.00 0.00 54 1011.3
20170922163537 87 301 1.0 3.0 0.00 0.00 0.00 53 1011.4
20170922163338 87 318 1.0 3.0 0.00 0.00 0.00 54 1011.3
20170922163137 87 327 1.0 3.0 0.00 0.00 0.00 55 1011.5
20170922162838 87 342 1.0 3.0 0.00 0.00 0.00 53 1011.7
20170922162637 87 16 2.0 3.0 0.00 0.00 0.00 54 1011.5
20170922162437 87 60 2.0 3.0 0.00 0.00 0.00 55 1011.5
20170922162337 87 84 1.0 3.0 0.00 0.00 0.00 53 1011.4
20170922162238 88 101 1.0 3.0 0.00 0.00 0.00 52 1011.4
20170922162037 88 135 1.0 3.0 0.00 0.00 0.00 52 1011.3
20170922161938 87 127 0.0 3.0 0.00 0.00 0.00 53 1011.5
20170922161737 86 135 1.0 3.0 0.00 0.00 0.00 51 1011.4